Location: Potawatomi Wildlife Park
(41.2308°N, 86.1050°W)
Time: 04:58:14
(UTC-04:00)

Daily predictions for brighter satellites

Satellite Brightness Start Highest point End
(mag) Time Altitude Azimuth Time Altitude Azimuth Time Altitude Azimuth
ATLAS CENTAUR R/B 4.1 00:29:28 76° ESE 00:29:28 76° ESE 00:51:23 10° NE
Cosmos 2278 Rocket 4.0 00:37:25 10° N 00:40:20 24° NNE 00:40:20 24° NNE
Cosmos 2360 Rocket 4.1 01:11:52 25° NNW 01:11:52 25° NNW 01:15:19 10° N
ATLAS 3B R/B 4.0 01:24:20 35° NE 01:24:20 35° NE 01:28:22 10° NE
Cosmos 2219 Rocket 4.2 01:33:22 23° NNE 01:33:22 23° NNE 01:35:25 10° NNE
SL-16 R/B 4.4 01:51:41 18° NE 01:51:41 18° NE 01:53:15 10° NE
Cosmos 2237 Rocket 4.1 01:54:16 25° NNE 01:54:16 25° NNE 01:56:32 10° NNE
Cosmos 2333 Rocket 4.1 01:57:40 27° N 01:57:40 27° N 02:00:13 10° NNE
COSMOS 2455 4.4 02:26:46 30° N 02:26:46 30° N 02:30:17 10° NNE
CZ-4C R/B 3.7 02:53:40 34° NNE 02:53:40 34° NNE 02:57:02 10° NNE
Cosmos 2369 Rocket 3.6 03:03:38 10° N 03:08:16 33° NE 03:08:16 33° NE
ATLAS 3B R/B 4.0 03:11:34 33° NW 03:12:14 33° NW 03:18:48 10° NNE
SL-16 R/B 4.4 03:09:51 17° E 03:12:58 25° ENE 03:17:50 10° N
Cosmos 1943 Rocket 4.4 03:19:32 10° N 03:23:47 21° NE 03:28:00 10° E
SL-16 R/B 3.9 03:33:34 25° NNW 03:33:34 25° NNW 03:37:01 10° N
Cosmos 2237 Rocket 4.5 03:36:05 14° NW 03:36:05 14° NW 03:38:37 10° NNW
ATLAS 5 CENTAUR R/B 3.0 03:57:08 39° ENE 03:57:08 39° ENE 04:00:51 10° NE
Cosmos 883 Rocket 4.5 04:00:00 72° E 04:00:00 72° E 04:06:06 10° NNE
IRS-1D 4.2 03:59:41 10° NNE 04:04:39 51° E 04:04:39 51° E
BREEZE-M DEB (TANK) 3.9 04:04:03 57° WNW 04:04:58 63° NW 04:08:55 10° NE
Spot 4 Rocket 4.4 04:00:14 10° NNE 04:04:33 61° NE 04:04:33 61° NE
USA 234 3.5 03:59:18 10° NE 04:05:42 54° SE 04:06:05 53° SE
Okean O Rocket 4.3 04:06:16 10° ENE 04:08:26 13° E 04:10:30 10° ESE
ARIANE 5 R/B 2.9 04:05:13 10° NNE 04:10:10 60° E 04:10:10 60° E
Meteor 1-27 4.4 04:11:50 64° NNW 04:11:50 64° NNW 04:16:38 10° N
IRAS Rocket 4.2 04:10:28 10° NNE 04:15:46 78° NNW 04:15:46 78° NNW
CZ-3A R/B 4.0 04:15:04 49° SW 04:19:04 90° SE 05:31:59 10° ENE
Cosmos 2315 Rocket 4.0 04:19:27 61° SSE 04:20:31 74° E 04:26:48 10° N
CZ-2D R/B 2.3 04:16:46 10° NNE 04:21:59 60° E 04:22:22 58° ESE
ADEOS 3.8 04:17:48 10° N 04:22:19 61° NNW 04:22:19 61° NNW
NOSS 3-2 (A) 4.2 04:24:12 39° WNW 04:24:53 40° NW 04:31:10 10° NNE
EO 1 Del DPAF 4.5 04:27:28 42° ENE 04:27:28 42° ENE 04:30:53 10° N
UNKNOWN OBJECT B 4.1 04:26:33 10° NNE 04:29:24 36° ENE 04:29:24 36° ENE
CENTAUR R/B 2.7 04:33:42 49° SSE 04:35:06 62° ESE 04:41:47 10° NE
Cosmos 1869 3.9 04:39:22 55° NE 04:39:22 55° NE 04:42:46 10° NNE
Cosmos 1862 Rocket 3.8 04:39:24 64° E 04:39:25 64° E 04:43:48 10° NNE
CZ-4C R/B 4.1 04:38:51 16° NW 04:40:41 19° NNW 04:44:56 10° NNE
Cosmos 1943 3.7 04:42:29 43° WNW 04:42:37 43° WNW 04:47:59 10° NNE
NOSS 3-2 (C) 4.3 04:41:58 34° WNW 04:43:15 38° NW 04:49:31 10° NNE
Cosmos 2242 Rocket 4.3 04:44:45 45° NW 04:44:45 45° NW 04:48:20 10° N
Meteor 2-3 Rocket 4.4 04:40:28 10° NNW 04:44:53 39° WNW 04:44:53 39° WNW
Resurs 1-4 Rocket 2.0 04:43:55 10° N 04:49:11 76° WNW 04:49:55 64° SW
COSMOS 2406 3.8 04:48:11 34° SSE 04:50:28 54° ESE 04:56:04 10° NNE
Cosmos 2369 Rocket 3.6 04:47:39 10° NW 04:49:58 22° WNW 04:49:58 22° WNW
SL-27 R/B 3.0 04:53:36 58° ENE 04:53:36 58° ENE 04:56:50 10° NNE
Cosmos 1933 4.4 04:53:00 32° SE 04:54:20 43° E 04:58:14 10° NNE
SL-16 R/B 2.5 04:54:57 48° SW 04:56:10 56° W 05:02:16 10° NNW
Cosmos 1455 3.0 04:57:48 41° NNW 04:57:48 41° NNW 05:00:40 10° N
MTI 4.5 04:59:37 55° NNE 04:59:37 55° NNE 05:02:25 10° N
CZ-4B R/B 4.2 04:56:31 10° NNE 05:01:30 40° E 05:06:07 12° SSE
Atlas Centaur 2 3.8 05:02:13 12° SSE 05:02:13 12° SSE 05:03:29 10° SE
CZ-4B R/B 4.5 04:59:40 10° NE 05:02:57 29° E 05:05:20 16° SSE
BREEZE-M DEB (TANK) 3.5 05:01:15 34° WNW 05:03:04 88° SSW 05:11:41 10° SE
Cosmos 1733 Rocket 3.2 04:59:11 10° NNW 05:03:08 56° WNW 05:03:08 56° WNW
Cosmos 1709 Rocket 4.3 04:58:46 10° NNW 05:04:47 47° W 05:06:00 41° WSW
Cosmos 1943 Rocket 2.1 05:02:24 10° NNW 05:08:01 63° WSW 05:13:33 10° S
Cosmos 1408 3.1 05:06:26 10° N 05:10:09 59° E 05:12:29 21° SSE
CZ-2C R/B 3.9 05:09:39 10° SSE 05:14:02 67° ENE 05:18:27 10° N
MOS 1-B 4.4 05:12:41 10° N 05:18:25 63° WNW 05:21:00 33° SW
ERS-2 4.1 05:15:58 10° NNW 05:17:40 17° NW 05:17:40 17° NW
IRS-1C Rocket 4.1 05:15:11 10° NNE 05:20:29 80° ESE 05:24:08 21° S
CZ-2D R/B 3.6 05:18:37 10° N 05:22:56 60° WNW 05:24:05 43° SW
PSLV R/B 3.6 05:20:46 10° NNE 05:24:34 90° WNW 05:26:00 37° SSW
Cosmos 2074 Rocket 3.9 05:21:49 10° NNW 05:28:00 70° W 05:34:12 10° S
Cosmos 2327 Rocket 4.4 05:23:53 10° NNW 05:29:58 70° W 05:36:06 10° S
SL-08 ROCKET BODY 4.3 05:23:56 10° N 05:29:58 75° W 05:36:04 10° S
Cosmos 1825 2.0 05:26:46 10° NNW 05:30:34 72° W 05:32:45 24° S
Cosmos 407 Rocket 4.0 05:27:57 12° S 05:32:35 58° ESE 05:37:46 10° NNE
Cosmos 2154 Rocket 4.5 05:27:02 10° N 05:33:21 65° E 05:39:38 10° SSE
Cosmos 1908 Rocket 3.5 05:29:57 10° NNW 05:34:17 61° W 05:37:32 17° S
Cosmos 2184 Rocket 4.0 05:28:05 10° NNW 05:34:24 66° W 05:40:39 10° S
Cosmos 1656 Rocket 3.5 05:29:44 10° NNW 05:35:10 80° WSW 05:40:35 10° SSE
ATLAS 5 CENTAUR R/B 3.2 05:38:42 20° WNW 05:40:50 27° NW 05:45:20 10° NNE
SeaSat 1 2.4 05:36:29 10° SSE 05:41:22 65° WSW 05:46:17 10° NNW
PAYLOAD B 4.2 05:37:35 10° NNE 05:43:08 81° WNW 05:48:21 12° SSW
Okean O Rocket 1.7 05:40:46 10° N 05:45:09 57° WNW 05:47:57 21° SW
Cosmos 2221 Rocket 3.5 05:43:51 18° SSW 05:47:05 67° W 05:51:29 10° N
MOZ.5/SAFIR/RUBIN 5/SL-8 3.9 05:44:03 10° S 05:48:31 48° W 05:53:01 10° NNW
Cosmos 1610 Rocket 4.5 05:42:13 10° NNW 05:48:32 71° W 05:54:45 10° S
USA 234 3.8 05:42:23 10° NE 05:48:38 49° NNW 05:53:25 18° W
ARIANE 5 R/B 4.1 05:45:34 10° NNW 05:49:01 18° WNW 05:50:30 16° W
GPS 2-05 Rocket1 4.3 05:49:11 20° SSW 05:50:10 23° SSE 05:52:53 10° ESE
Cosmos 1703 Rocket 3.8 05:49:12 19° SSW 05:52:13 52° W 05:56:36 10° N
Okean-O 3.3 05:49:43 10° NNE 05:54:06 56° E 05:58:27 10° S
Cosmos 389 Rocket 4.2 05:54:56 17° WNW 05:54:58 17° WNW 05:57:22 10° NNW
Cosmos 2341 Rocket 4.2 05:51:27 10° N 05:57:47 78° E 06:04:07 10° S
CZ-2D R/B 3.7 05:58:04 10° NNW 06:01:33 18° WNW 06:03:41 14° W
Aureole 3 Rocket 3.9 05:58:24 10° SSW 06:05:05 57° W 06:09:51 10° N
Cosmos 2285 Rocket 4.4 06:01:19 10° NW 06:07:11 39° W 06:13:01 10° SSW
Cosmos 1862 4.5 06:05:46 10° NW 06:08:55 23° W 06:11:07 15° SW
Abrixas rocket 2.4 06:05:40 10° WNW 06:09:00 72° NNE 06:12:20 10° ESE
PSLV R/B 3.6 06:04:39 10° NNE 06:09:04 87° WNW 06:13:28 10° SSW
Cosmos 2151 Rocket 3.9 06:07:08 10° N 06:11:31 69° E 06:15:53 10° SSE
ADEOS Rocket 3.6 06:06:14 10° NNE 06:14:02 87° WNW 06:21:44 10° SSW
Meteor 1-26 Rocket 4.4 06:08:20 10° SSW 06:14:05 60° WNW 06:19:57 10° N
COSMOS 2487 2.9 06:12:41 13° SW 06:15:45 46° WNW 06:19:15 10° N
PSLV R/B 4.0 06:16:49 14° W 06:19:27 37° SSW 06:22:37 10° SE
Cosmos 1190 Rocket 4.5 06:15:37 11° SW 06:20:25 43° WNW 06:25:22 10° N
Okean 1-7 3.6 06:18:17 10° SW 06:22:17 37° WNW 06:26:22 10° N
Feng Yun 1-1 Rocket 4.2 06:17:05 10° NNE 06:22:30 87° WNW 06:27:56 10° SSW
Meteor 2-13 Rocket 4.4 06:16:30 10° N 06:22:34 77° W 06:28:36 10° S
Cosmos 2278 4.1 06:17:20 10° NNW 06:23:04 70° ENE 06:28:45 10° SSE
CENTAUR R/B 3.7 06:20:54 11° W 06:26:16 31° NW 06:32:24 10° NNE
Meteor PRIRODA 3.6 06:23:39 10° N 06:27:26 75° WNW 06:31:11 10° SSW
Resurs 1-4 Rocket 4.1 06:27:22 10° NW 06:28:07 10° WNW 06:28:52 10° WNW
Meteor 1-14 Rocket 4.5 06:22:31 10° NNW 06:28:12 53° W 06:33:57 10° S
Thor Agena Rocket 4.1 06:26:03 10° SSW 06:30:45 36° W 06:35:33 10° NNW
Okean 2 Rocket 4.0 06:31:37 10° NNW 06:35:27 28° W 06:39:18 10° SSW
Cosmos 1356 3.6 06:32:54 10° N 06:36:28 82° E 06:39:59 10° SSE
Cosmos 2369 3.9 06:32:00 10° NNW 06:37:46 82° ENE 06:43:29 10° SSE
CZ-4B R/B 4.3 06:35:23 10° NNW 06:37:58 18° WNW 06:40:37 10° WSW
Meteor 2-10 Rocket 3.8 06:32:47 10° SSW 06:38:33 67° WNW 06:44:13 10° N
Cosmos 1954 Rocket 4.1 06:33:38 10° SSW 06:38:45 63° WNW 06:43:57 10° NNE
Okean 1 Rocket 4.3 06:35:12 10° N 06:39:26 48° E 06:43:39 10° SSE
ADEOS II 2.2 06:34:30 10° N 06:39:40 57° WNW 06:44:48 10° SSW
Cosmos 1023 Rocket 4.5 06:36:43 10° SSW 06:41:48 86° WNW 06:46:57 10° NNE
CZ-4B R/B 4.2 06:37:32 10° N 06:41:51 26° WNW 06:46:09 10° WSW
